| time (UTC) | temp C | wind direction | speed KPH | gust KPH | rain 1hr cm | rain 24hr cm | rain mn cm | humidity % | barometer mb |
| 20260508082008 | 5 | 216 | 4.8 | 8.0 | 0.00 | 0.00 | 0.00 | 82 | 1014.3 |
| 20260508081007 | 5 | 216 | 1.6 | 3.2 | 0.00 | 0.00 | 0.00 | 83 | 1014.3 |
| 20260508080002 | 5 | 226 | 1.6 | 1.6 | 0.00 | 0.00 | 0.00 | 83 | 1014.5 |
| 20260508074957 | 5 | 225 | 4.8 | 4.8 | 0.00 | 0.00 | 0.00 | 83 | 1014.4 |
| 20260508073956 | 5 | 244 | 1.6 | 4.8 | 0.00 | 0.00 | 0.00 | 83 | 1014.3 |
| 20260508072956 | 5 | 231 | 0.0 | 1.6 | 0.00 | 0.00 | 0.00 | 83 | 1014.4 |
| 20260508071955 | 5 | 280 | 3.2 | 4.8 | 0.00 | 0.00 | 0.00 | 83 | 1014.5 |
| 20260508070951 | 4 | 250 | 0.0 | 0.0 | 0.00 | 0.00 | 0.00 | 84 | 1014.5 |
| 20260508065946 | 4 | 313 | 3.2 | 4.8 | 0.00 | 0.00 | 0.00 | 84 | 1014.7 |
| 20260508064942 | 5 | 315 | 1.6 | 4.8 | 0.00 | 0.00 | 0.00 | 83 | 1014.7 |
| 20260508063942 | 5 | 315 | 3.2 | 4.8 | 0.00 | 0.00 | 0.00 | 81 | 1014.8 |
| 20260508062937 | 5 | 304 | 0.0 | 0.0 | 0.00 | 0.00 | 0.00 | 79 | 1014.9 |
| 20260508061937 | 5 | 254 | 0.0 | 0.0 | 0.00 | 0.00 | 0.00 | 78 | 1014.9 |
| 20260508060937 | 5 | 277 | 1.6 | 4.8 | 0.00 | 0.00 | 0.00 | 76 | 1015.2 |
| 20260508055936 | 6 | 262 | 3.2 | 4.8 | 0.00 | 0.00 | 0.00 | 71 | 1014.9 |
| 20260508054935 | 6 | 258 | 6.4 | 8.0 | 0.00 | 0.00 | 0.00 | 69 | 1015.2 |
| 20260508053935 | 5 | 222 | 0.0 | 0.0 | 0.00 | 0.00 | 0.00 | 71 | 1015.1 |
| 20260508052930 | 5 | 189 | 0.0 | 0.0 | 0.00 | 0.00 | 0.00 | 69 | 1014.9 |
| 20260508051929 | 5 | 203 | 0.0 | 0.0 | 0.00 | 0.00 | 0.00 | 70 | 1015.0 |
| 20260508050927 | 5 | 197 | 0.0 | 0.0 | 0.00 | 0.00 | 0.00 | 69 | 1015.2 |
| 20260508045926 | 5 | 193 | 0.0 | 0.0 | 0.00 | 0.00 | 0.00 | 66 | 1014.9 |
| 20260508044921 | 5 | 185 | 0.0 | 0.0 | 0.00 | 0.00 | 0.00 | 66 | 1015.1 |
| 20260508043919 | 5 | 196 | 0.0 | 0.0 | 0.00 | 0.00 | 0.00 | 65 | 1015.3 |
| 20260508042919 | 5 | 212 | 0.0 | 0.0 | 0.00 | 0.00 | 0.00 | 68 | 1015.4 |
| 20260508041914 | 5 | 184 | 1.6 | 1.6 | 0.00 | 0.00 | 0.00 | 73 | 1015.2 |
| 20260508040913 | 5 | 183 | 0.0 | 0.0 | 0.00 | 0.00 | 0.00 | 74 | 1015.1 |
| 20260508035908 | 5 | 231 | 0.0 | 0.0 | 0.00 | 0.00 | 0.00 | 73 | 1015.1 |
| 20260508034907 | 5 | 232 | 0.0 | 0.0 | 0.00 | 0.00 | 0.00 | 71 | 1015.0 |
| 20260508033907 | 5 | 234 | 0.0 | 0.0 | 0.00 | 0.00 | 0.00 | 68 | 1015.0 |
| 20260508032903 | 5 | 238 | 0.0 | 0.0 | 0.00 | 0.00 | 0.00 | 65 | 1015.0 |
| 20260508031902 | 5 | 283 | 0.0 | 0.0 | 0.00 | 0.00 | 0.00 | 66 | 1014.8 |
| 20260508030901 | 5 | 285 | 0.0 | 0.0 | 0.00 | 0.00 | 0.00 | 67 | 1015.1 |
| 20260508025856 | 5 | 324 | 0.0 | 0.0 | 0.00 | 0.00 | 0.00 | 68 | 1015.1 |
| 20260508024855 | 5 | 328 | 0.0 | 0.0 | 0.00 | 0.00 | 0.00 | 67 | 1015.1 |
| 20260508023854 | 6 | 323 | 0.0 | 0.0 | 0.00 | 0.00 | 0.00 | 67 | 1015.0 |
| 20260508022854 | 6 | 296 | 0.0 | 0.0 | 0.00 | 0.00 | 0.00 | 66 | 1015.1 |
| 20260508021852 | 6 | 311 | 0.0 | 0.0 | 0.00 | 0.00 | 0.00 | 67 | 1014.9 |
| 20260508020850 | 6 | 314 | 0.0 | 0.0 | 0.00 | 0.00 | 0.00 | 68 | 1015.0 |
| 20260508015845 | 6 | 313 | 0.0 | 0.0 | 0.00 | 0.00 | 0.00 | 69 | 1015.0 |
| 20260508014845 | 6 | 308 | 0.0 | 0.0 | 0.00 | 0.00 | 0.00 | 69 | 1015.0 |
| 20260508013843 | 6 | 317 | 0.0 | 0.0 | 0.00 | 0.00 | 0.00 | 69 | 1014.9 |
| 20260508012843 | 6 | 309 | 0.0 | 0.0 | 0.00 | 0.00 | 0.00 | 69 | 1014.7 |
| 20260508011838 | 6 | 321 | 0.0 | 0.0 | 0.00 | 0.00 | 0.00 | 69 | 1014.6 |
| 20260508010838 | 6 | 250 | 0.0 | 0.0 | 0.00 | 0.00 | 0.00 | 70 | 1014.7 |
| 20260508005838 | 6 | 308 | 0.0 | 0.0 | 0.00 | 0.00 | 0.00 | 70 | 1014.4 |
| 20260508004837 | 6 | 227 | 0.0 | 0.0 | 0.00 | 0.00 | 0.00 | 71 | 1014.4 |
| 20260508003835 | 6 | 214 | 0.0 | 0.0 | 0.00 | 0.00 | 0.00 | 71 | 1014.4 |
| 20260508002835 | 7 | 209 | 0.0 | 0.0 | 0.00 | 0.00 | 0.00 | 70 | 1014.1 |
| 20260508001833 | 7 | 213 | 0.0 | 0.0 | 0.00 | 0.00 | 0.00 | 70 | 1014.1 |
| 20260508000832 | 7 | 215 | 0.0 | 0.0 | 0.00 | 0.00 | 0.00 | 68 | 1013.9 |
| 20260507235831 | 7 | 216 | 0.0 | 0.0 | 0.00 | 0.00 | 0.00 | 68 | 1014.1 |
| 20260507234831 | 7 | 229 | 0.0 | 0.0 | 0.00 | 0.00 | 0.00 | 68 | 1014.1 |
| 20260507233829 | 7 | 277 | 0.0 | 0.0 | 0.00 | 0.00 | 0.00 | 69 | 1013.9 |
| 20260507232825 | 7 | 218 | 0.0 | 0.0 | 0.00 | 0.00 | 0.00 | 69 | 1013.9 |
| 20260507231825 | 7 | 265 | 0.0 | 0.0 | 0.00 | 0.00 | 0.00 | 68 | 1014.0 |
| 20260507230823 | 7 | 325 | 0.0 | 0.0 | 0.00 | 0.00 | 0.00 | 68 | 1014.0 |
| 20260507225821 | 7 | 278 | 0.0 | 0.0 | 0.00 | 0.00 | 0.00 | 70 | 1014.0 |
| 20260507224819 | 7 | 246 | 0.0 | 1.6 | 0.00 | 0.00 | 0.00 | 71 | 1014.2 |
| 20260507223818 | 7 | 342 | 1.6 | 3.2 | 0.00 | 0.00 | 0.00 | 72 | 1014.3 |
| 20260507222817 | 7 | 311 | 0.0 | 0.0 | 0.00 | 0.00 | 0.00 | 72 | 1014.4 |
| 20260507221817 | 6 | 320 | 3.2 | 4.8 | 0.00 | 0.00 | 0.00 | 73 | 1014.2 |
| 20260507220815 | 6 | 318 | 0.0 | 1.6 | 0.00 | 0.00 | 0.00 | 73 | 1014.1 |
| 20260507215815 | 7 | 306 | 6.4 | 12.9 | 0.00 | 0.00 | 0.00 | 72 | 1014.4 |
| 20260507214815 | 7 | 252 | 1.6 | 4.8 | 0.00 | 0.00 | 0.00 | 72 | 1014.2 |
| 20260507213813 | 7 | 222 | 1.6 | 4.8 | 0.00 | 0.00 | 0.00 | 72 | 1014.1 |
| 20260507212813 | 7 | 195 | 0.0 | 0.0 | 0.00 | 0.00 | 0.00 | 75 | 1014.0 |
| 20260507211812 | 7 | 149 | 1.6 | 4.8 | 0.00 | 0.00 | 0.00 | 74 | 1013.9 |
| 20260507210811 | 7 | 208 | 3.2 | 4.8 | 0.00 | 0.00 | 0.00 | 77 | 1014.0 |
| 20260507205810 | 7 | 231 | 8.0 | 12.9 | 0.00 | 0.00 | 0.00 | 75 | 1013.9 |
| 20260507204810 | 7 | 217 | 8.0 | 11.3 | 0.00 | 0.00 | 0.00 | 77 | 1013.7 |
| 20260507203805 | 7 | 206 | 8.0 | 11.3 | 0.00 | 0.00 | 0.00 | 72 | 1013.7 |
| 20260507202805 | 9 | 207 | 6.4 | 8.0 | 0.00 | 0.00 | 0.00 | 62 | 1013.5 |
| 20260507201801 | 9 | 242 | 4.8 | 8.0 | 0.00 | 0.00 | 0.00 | 54 | 1013.5 |
| 20260507200801 | 9 | 236 | 6.4 | 8.0 | 0.00 | 0.00 | 0.00 | 55 | 1013.4 |
| 20260507195759 | 9 | 201 | 4.8 | 9.7 | 0.00 | 0.00 | 0.00 | 55 | 1013.5 |
| 20260507194754 | 9 | 224 | 0.0 | 0.0 | 0.00 | 0.00 | 0.00 | 52 | 1013.5 |
| 20260507193752 | 10 | 248 | 9.7 | 12.9 | 0.00 | 0.00 | 0.00 | 49 | 1013.5 |
| 20260507192751 | 10 | 253 | 6.4 | 9.7 | 0.00 | 0.00 | 0.00 | 49 | 1013.5 |
| 20260507191750 | 10 | 287 | 1.6 | 3.2 | 0.00 | 0.00 | 0.00 | 48 | 1013.5 |
| 20260507190749 | 10 | 174 | 4.8 | 9.7 | 0.00 | 0.00 | 0.00 | 48 | 1013.6 |
| 20260507185746 | 10 | 301 | 4.8 | 9.7 | 0.00 | 0.00 | 0.00 | 47 | 1013.6 |
| 20260507184746 | 10 | 217 | 4.8 | 9.7 | 0.00 | 0.00 | 0.00 | 47 | 1013.7 |
| 20260507183746 | 10 | 301 | 6.4 | 14.5 | 0.00 | 0.00 | 0.00 | 47 | 1013.6 |
| 20260507182741 | 10 | 281 | 6.4 | 9.7 | 0.00 | 0.00 | 0.00 | 48 | 1013.8 |
| 20260507181739 | 10 | 199 | 4.8 | 9.7 | 0.00 | 0.00 | 0.00 | 46 | 1013.7 |
| 20260507180737 | 10 | 306 | 9.7 | 12.9 | 0.00 | 0.00 | 0.00 | 48 | 1013.7 |
| 20260507175736 | 10 | 251 | 9.7 | 14.5 | 0.00 | 0.00 | 0.00 | 51 | 1013.9 |
| 20260507174736 | 10 | 229 | 1.6 | 4.8 | 0.00 | 0.00 | 0.00 | 51 | 1013.9 |
| 20260507173732 | 10 | 258 | 1.6 | 3.2 | 0.00 | 0.00 | 0.00 | 52 | 1014.1 |
| 20260507172731 | 10 | 272 | 6.4 | 9.7 | 0.00 | 0.00 | 0.00 | 51 | 1014.2 |
| 20260507171728 | 9 | 262 | 3.2 | 4.8 | 0.00 | 0.00 | 0.00 | 52 | 1014.4 |
| 20260507170728 | 9 | 243 | 3.2 | 4.8 | 0.00 | 0.00 | 0.00 | 54 | 1014.5 |
| 20260507165726 | 9 | 338 | 8.0 | 11.3 | 0.00 | 0.00 | 0.00 | 54 | 1014.2 |
| 20260507164725 | 9 | 234 | 3.2 | 4.8 | 0.00 | 0.00 | 0.00 | 53 | 1014.6 |
| 20260507163725 | 9 | 201 | 0.0 | 0.0 | 0.00 | 0.00 | 0.00 | 53 | 1014.5 |
| 20260507162724 | 9 | 311 | 0.0 | 3.2 | 0.00 | 0.00 | 0.00 | 54 | 1014.6 |
| 20260507161723 | 8 | 175 | 0.0 | 1.6 | 0.00 | 0.00 | 0.00 | 55 | 1014.7 |
| 20260507160720 | 9 | 223 | 3.2 | 8.0 | 0.00 | 0.00 | 0.00 | 56 | 1014.7 |
| 20260507155719 | 9 | 245 | 3.2 | 4.8 | 0.00 | 0.00 | 0.00 | 53 | 1014.6 |
| 20260507154718 | 9 | 208 | 0.0 | 0.0 | 0.00 | 0.00 | 0.00 | 57 | 1014.9 |
| 20260507153717 | 8 | 213 | 4.8 | 9.7 | 0.00 | 0.00 | 0.00 | 58 | 1014.9 |
| 20260507152717 | 9 | 244 | 1.6 | 3.2 | 0.00 | 0.00 | 0.00 | 57 | 1014.9 |
| 20260507151714 | 8 | 228 | 0.0 | 0.0 | 0.00 | 0.00 | 0.00 | 56 | 1014.9 |
| 20260507150714 | 8 | 200 | 0.0 | 0.0 | 0.00 | 0.00 | 0.00 | 56 | 1014.9 |
| 20260507145712 | 8 | 207 | 0.0 | 1.6 | 0.00 | 0.00 | 0.00 | 59 | 1014.9 |
| 20260507144711 | 8 | 210 | 0.0 | 0.0 | 0.00 | 0.00 | 0.00 | 60 | 1015.1 |
| 20260507143706 | 7 | 307 | 0.0 | 0.0 | 0.00 | 0.00 | 0.00 | 65 | 1014.8 |
| 20260507142704 | 7 | 29 | 0.0 | 0.0 | 0.00 | 0.00 | 0.00 | 64 | 1015.0 |
| 20260507141703 | 7 | 195 | 1.6 | 1.6 | 0.00 | 0.00 | 0.00 | 64 | 1014.9 |
| 20260507140702 | 7 | 340 | 0.0 | 0.0 | 0.00 | 0.00 | 0.00 | 66 | 1015.2 |
| 20260507135657 | 7 | 350 | 0.0 | 0.0 | 0.00 | 0.00 | 0.00 | 68 | 1015.3 |
| 20260507134656 | 7 | 320 | 4.8 | 8.0 | 0.00 | 0.00 | 0.00 | 68 | 1015.4 |
| 20260507133654 | 6 | 297 | 0.0 | 0.0 | 0.00 | 0.00 | 0.00 | 71 | 1015.3 |
| 20260507132655 | 6 | 248 | 1.6 | 1.6 | 0.00 | 0.00 | 0.00 | 71 | 1015.4 |
| 20260507131653 | 6 | 260 | 0.0 | 0.0 | 0.00 | 0.00 | 0.00 | 72 | 1015.4 |
| 20260507130653 | 6 | 195 | 0.0 | 0.0 | 0.00 | 0.00 | 0.00 | 73 | 1015.4 |
| 20260507125650 | 6 | 182 | 0.0 | 0.0 | 0.00 | 0.00 | 0.00 | 73 | 1015.3 |
| 20260507124649 | 6 | 192 | 0.0 | 0.0 | 0.00 | 0.00 | 0.00 | 74 | 1015.5 |
| 20260507123645 | 6 | 177 | 0.0 | 0.0 | 0.00 | 0.00 | 0.00 | 73 | 1015.5 |
| 20260507122643 | 5 | 178 | 0.0 | 0.0 | 0.00 | 0.00 | 0.00 | 74 | 1015.3 |
| 20260507121641 | 5 | 183 | 0.0 | 0.0 | 0.00 | 0.00 | 0.00 | 75 | 1015.5 |
| 20260507120639 | 5 | 186 | 0.0 | 0.0 | 0.00 | 0.00 | 0.00 | 76 | 1015.6 |
| 20260507115638 | 5 | 189 | 0.0 | 0.0 | 0.00 | 0.00 | 0.00 | 76 | 1015.3 |
| 20260507114636 | 4 | 152 | 0.0 | 0.0 | 0.00 | 0.00 | 0.00 | 76 | 1015.3 |
| 20260507113631 | 3 | 187 | 0.0 | 0.0 | 0.00 | 0.00 | 0.00 | 78 | 1015.4 |
| 20260507112631 | 3 | 186 | 0.0 | 0.0 | 0.00 | 0.00 | 0.00 | 80 | 1015.4 |
| 20260507111631 | 2 | 182 | 0.0 | 0.0 | 0.00 | 0.00 | 0.00 | 80 | 1015.3 |
| 20260507110629 | 2 | 194 | 0.0 | 0.0 | 0.00 | 0.00 | 0.00 | 80 | 1014.9 |
| 20260507105629 | 2 | 187 | 0.0 | 0.0 | 0.00 | 0.00 | 0.00 | 81 | 1014.9 |
| 20260507104628 | 2 | 186 | 0.0 | 0.0 | 0.00 | 0.00 | 0.00 | 81 | 1015.0 |
| 20260507103626 | 2 | 191 | 0.0 | 0.0 | 0.00 | 0.00 | 0.00 | 81 | 1015.1 |
| 20260507102626 | 2 | 195 | 0.0 | 0.0 | 0.00 | 0.00 | 0.00 | 81 | 1014.9 |
| 20260507101624 | 2 | 201 | 0.0 | 0.0 | 0.00 | 0.00 | 0.00 | 80 | 1015.0 |
| 20260507100623 | 2 | 201 | 0.0 | 0.0 | 0.00 | 0.00 | 0.00 | 80 | 1015.3 |
| 20260507095619 | 2 | 201 | 0.0 | 0.0 | 0.00 | 0.00 | 0.00 | 79 | 1015.2 |
| 20260507094617 | 2 | 201 | 0.0 | 0.0 | 0.00 | 0.00 | 0.00 | 78 | 1015.0 |
| 20260507093612 | 2 | 201 | 0.0 | 0.0 | 0.00 | 0.00 | 0.00 | 78 | 1015.2 |
| 20260507092612 | 2 | 201 | 0.0 | 0.0 | 0.00 | 0.00 | 0.00 | 77 | 1015.2 |
| 20260507091612 | 2 | 201 | 0.0 | 0.0 | 0.00 | 0.00 | 0.00 | 77 | 1015.3 |
| 20260507090609 | 2 | 201 | 0.0 | 0.0 | 0.00 | 0.00 | 0.00 | 76 | 1015.4 |
| 20260507085609 | 3 | 201 | 0.0 | 0.0 | 0.00 | 0.00 | 0.00 | 76 | 1015.7 |
| 20260507084609 | 3 | 201 | 0.0 | 1.6 | 0.00 | 0.00 | 0.00 | 75 | 1015.3 |
| 20260507083608 | 3 | 202 | 0.0 | 0.0 | 0.00 | 0.00 | 0.00 | 75 | 1015.7 |
| 20260507082607 | 3 | 201 | 0.0 | 0.0 | 0.00 | 0.00 | 0.00 | 76 | 1015.7 |